TimeEST,TemperatureF,Dew PointF,Humidity,Sea Level PressureIn,VisibilityMPH,Wind Direction,Wind SpeedMPH,Gust SpeedMPH,PrecipitationIn,Events,Conditions,WindDirDegrees,DateUTC
12:14 AM,18.1,6.6,61,30.20,10.0,NW,19.6,29.9,N/A,,Mostly Cloudy,320,2012-01-03 05:14:00
12:34 AM,18.1,7.0,62,30.20,10.0,NW,18.4,35.7,N/A,,Overcast,320,2012-01-03 05:34:00
12:54 AM,18.0,7.9,65,30.19,10.0,NW,19.6,29.9,N/A,,Overcast,320,2012-01-03 05:54:00
1:14 AM,18.1,7.5,63,30.19,7.0,NNW,19.6,31.1,N/A,Snow,Light Snow,330,2012-01-03 06:14:00
1:35 AM,18.3,9.3,68,30.19,10.0,NNW,18.4,28.8,N/A,,Overcast,330,2012-01-03 06:35:00
1:54 AM,18.3,10.9,73,30.19,3.0,NW,23.0,35.7,N/A,Snow,Light Snow,320,2012-01-03 06:54:00
2:14 AM,18.5,7.3,62,30.19,10.0,NW,23.0,32.2,N/A,,Overcast,310,2012-01-03 07:14:00
2:35 AM,18.3,6.1,59,30.19,10.0,NW,19.6,34.5,N/A,,Mostly Cloudy,320,2012-01-03 07:35:00
2:54 AM,18.3,6.1,59,30.20,10.0,NW,24.2,33.4,N/A,,Mostly Cloudy,320,2012-01-03 07:54:00
3:14 AM,18.5,7.5,62,30.20,10.0,NW,20.7,34.5,N/A,,Mostly Cloudy,320,2012-01-03 08:14:00
3:35 AM,18.5,7.3,62,30.20,10.0,NW,21.9,36.8,N/A,,Overcast,320,2012-01-03 08:35:00
3:54 AM,18.5,7.9,63,30.20,10.0,NNW,23.0,35.7,N/A,,Overcast,330,2012-01-03 08:54:00
4:15 AM,18.1,7.5,63,30.20,10.0,NW,21.9,32.2,N/A,,Overcast,320,2012-01-03 09:15:00
4:34 AM,18.3,7.3,62,30.20,10.0,NW,21.9,29.9,N/A,,Overcast,310,2012-01-03 09:34:00
5:14 AM,18.3,9.7,69,30.21,5.0,NW,21.9,27.6,N/A,Snow,Light Snow,310,2012-01-03 10:14:00
5:34 AM,18.1,8.6,66,30.22,5.0,NNW,21.9,29.9,N/A,Snow,Light Snow,340,2012-01-03 10:34:00
5:55 AM,18.0,7.9,65,30.23,5.0,NNW,18.4,25.3,N/A,Snow,Light Snow,340,2012-01-03 10:55:00
6:14 AM,17.6,12.7,81,30.24,5.0,NNW,15.0,29.9,N/A,Snow,Light Snow,330,2012-01-03 11:14:00
6:34 AM,16.3,12.9,86,30.25,1.2,North,16.1,21.9,N/A,Snow,Light Snow,360,2012-01-03 11:34:00
7:14 AM,15.8,11.1,82,30.27,4.0,North,17.3,24.2,N/A,Snow,Light Snow,360,2012-01-03 12:14:00
7:55 AM,14.5,8.1,75,30.27,10.0,North,19.6,24.2,N/A,,Mostly Cloudy,360,2012-01-03 12:55:00
8:14 AM,13.8,7.2,75,30.27,10.0,North,16.1,21.9,N/A,,Mostly Cloudy,10,2012-01-03 13:14:00
8:34 AM,13.8,6.8,74,30.28,10.0,North,12.7,23.0,N/A,,Mostly Cloudy,350,2012-01-03 13:34:00
8:54 AM,14.0,6.8,73,30.29,10.0,North,11.5,17.3,N/A,,Overcast,10,2012-01-03 13:54:00
9:14 AM,13.8,7.2,75,30.29,10.0,NNE,10.4,-,N/A,,Overcast,20,2012-01-03 14:14:00
9:35 AM,13.8,6.3,72,30.30,10.0,NE,6.9,-,N/A,,Mostly Cloudy,40,2012-01-03 14:35:00
9:54 AM,14.0,6.4,72,30.30,10.0,NNE,6.9,-,N/A,,Mostly Cloudy,20,2012-01-03 14:54:00
10:14 AM,13.5,7.5,77,30.31,10.0,East,6.9,-,N/A,,Mostly Cloudy,90,2012-01-03 15:14:00
10:35 AM,12.2,7.7,82,30.32,5.0,East,8.1,-,N/A,Snow,Light Snow,100,2012-01-03 15:35:00
10:54 AM,12.2,7.5,82,30.32,1.5,ESE,5.8,-,N/A,Snow,Light Snow,120,2012-01-03 15:54:00
11:14 AM,13.1,8.1,80,30.29,2.0,East,6.9,-,N/A,Snow,Light Snow,100,2012-01-03 16:14:00
11:35 AM,12.9,7.7,80,30.29,2.5,ESE,4.6,-,N/A,Snow,Light Snow,110,2012-01-03 16:35:00
11:54 AM,13.5,7.2,76,30.27,7.0,ESE,4.6,-,N/A,Snow,Light Snow,110,2012-01-03 16:54:00
12:34 PM,14.4,6.3,70,30.26,10.0,ESE,4.6,-,N/A,,Clear,110,2012-01-03 17:34:00
12:54 PM,14.9,6.4,69,30.25,10.0,SSE,4.6,-,N/A,,Clear,150,2012-01-03 17:54:00
1:15 PM,15.4,6.3,67,30.24,10.0,Calm,Calm,-,N/A,,Clear,0,2012-01-03 18:15:00
1:54 PM,16.7,7.5,67,30.23,10.0,SSW,5.8,-,N/A,,Clear,200,2012-01-03 18:54:00
2:15 PM,16.7,7.5,67,30.22,10.0,SSE,5.8,-,N/A,,Scattered Clouds,150,2012-01-03 19:15:00
2:34 PM,17.4,7.9,66,30.22,10.0,South,6.9,-,N/A,,Scattered Clouds,170,2012-01-03 19:34:00
2:54 PM,17.6,8.2,67,30.21,10.0,South,4.6,-,N/A,,Scattered Clouds,170,2012-01-03 19:54:00
3:14 PM,18.0,8.1,65,30.19,10.0,South,6.9,-,N/A,,Mostly Cloudy,170,2012-01-03 20:14:00
3:54 PM,18.5,9.3,67,30.18,10.0,SSE,8.1,-,N/A,,Mostly Cloudy,150,2012-01-03 20:54:00
4:15 PM,18.5,9.9,69,30.17,10.0,SSE,8.1,-,N/A,,Mostly Cloudy,160,2012-01-03 21:15:00
4:34 PM,18.5,10.2,70,30.15,10.0,SSE,8.1,-,N/A,,Scattered Clouds,150,2012-01-03 21:34:00
4:55 PM,19.0,11.1,71,30.15,10.0,SSE,5.8,-,N/A,,Mostly Cloudy,150,2012-01-03 21:55:00
5:14 PM,19.4,12.0,73,30.13,10.0,SSE,6.9,-,N/A,,Overcast,150,2012-01-03 22:14:00
5:34 PM,19.8,12.0,72,30.12,10.0,SSE,8.1,-,N/A,,Overcast,150,2012-01-03 22:34:00
5:55 PM,20.1,12.2,71,30.10,10.0,SSE,5.8,-,N/A,,Overcast,150,2012-01-03 22:55:00
6:14 PM,20.3,12.2,71,30.08,10.0,SE,9.2,-,N/A,,Overcast,140,2012-01-03 23:14:00
6:34 PM,20.3,12.2,71,30.07,10.0,SSE,9.2,-,N/A,,Mostly Cloudy,150,2012-01-03 23:34:00
6:54 PM,20.1,12.0,71,30.07,10.0,SE,5.8,16.1,N/A,,Mostly Cloudy,140,2012-01-03 23:54:00
7:14 PM,19.4,12.0,73,30.07,10.0,SSE,8.1,-,N/A,,Scattered Clouds,150,2012-01-04 00:14:00
7:35 PM,19.4,12.2,74,30.07,10.0,SSE,6.9,-,N/A,,Scattered Clouds,150,2012-01-04 00:35:00
7:54 PM,19.4,12.4,74,30.05,10.0,SSE,6.9,-,N/A,,Clear,150,2012-01-04 00:54:00
8:14 PM,19.4,12.6,75,30.05,10.0,SSE,8.1,-,N/A,,Scattered Clouds,150,2012-01-04 01:14:00
8:35 PM,19.4,12.9,76,30.04,10.0,SSE,9.2,-,N/A,,Clear,150,2012-01-04 01:35:00
8:54 PM,19.4,13.1,76,30.03,10.0,SSE,5.8,-,N/A,,Clear,160,2012-01-04 01:54:00
9:14 PM,21.2,13.8,73,30.03,10.0,South,8.1,-,N/A,,Clear,180,2012-01-04 02:14:00
9:35 PM,21.9,14.5,73,30.00,10.0,South,15.0,18.4,N/A,,Clear,180,2012-01-04 02:35:00
9:54 PM,21.7,14.4,73,30.02,10.0,South,9.2,20.7,N/A,,Scattered Clouds,190,2012-01-04 02:54:00
10:14 PM,21.7,14.7,74,30.00,10.0,South,10.4,16.1,N/A,,Mostly Cloudy,170,2012-01-04 03:14:00
10:35 PM,22.3,15.6,76,29.99,10.0,South,11.5,17.3,N/A,,Overcast,180,2012-01-04 03:35:00
10:54 PM,22.6,15.8,75,29.97,10.0,South,13.8,19.6,N/A,,Overcast,190,2012-01-04 03:54:00
11:14 PM,23.0,16.2,75,29.98,10.0,South,11.5,19.6,N/A,,Overcast,190,2012-01-04 04:14:00
11:35 PM,23.0,16.3,76,29.97,10.0,South,11.5,19.6,N/A,,Mostly Cloudy,180,2012-01-04 04:35:00
11:54 PM,23.2,16.7,76,29.95,10.0,South,11.5,18.4,N/A,,Mostly Cloudy,170,2012-01-04 04:54:00